This is the latest recevied weather packets stored in our database for station/object KJ4EBE. If no packets are shown the sender has not sent any weather packets the latest 10 day(s).
| Time | Temp. | Humidity | Pressure | Rain* | Wind** | Luminosity | Snow |
|---|---|---|---|---|---|---|---|
| 1777320216 | 33.33° C | 56% | 1008.9 hPa | 0 mm | - | 254 W/m² | - |
| 1777319913 | 34.44° C | 55% | 1009 hPa | 0 mm | - | 352 W/m² | - |
| 1777319611 | 35° C | 56% | 1008.9 hPa | 0 mm | - | 718 W/m² | - |
| 1777319307 | 35° C | 57% | 1008.9 hPa | 0 mm | - | 704 W/m² | - |
| 1777319004 | 35° C | 44% | 1009 hPa | 0 mm | - | 676 W/m² | - |
| 1777318701 | 35° C | 50% | 1008.9 hPa | 0 mm | - | 725 W/m² | - |
| 1777318397 | 35° C | 50% | 1009.1 hPa | 0 mm | - | 719 W/m² | - |
| 1777318095 | 35° C | 53% | 1009.3 hPa | 0 mm | - | 729 W/m² | - |
| 1777317792 | 35.56° C | 50% | 1009.1 hPa | 0 mm | - | 737 W/m² | - |
| 1777317488 | 34.44° C | 54% | 1009.1 hPa | 0 mm | - | 744 W/m² | - |
| 1777317186 | 35° C | 50% | 1009 hPa | 0 mm | - | 719 W/m² | - |
| 1777316880 | 33.89° C | 50% | 1009.2 hPa | 0 mm | - | 724 W/m² | - |
| 1777316577 | 34.44° C | 52% | 1009.3 hPa | 0 mm | - | 715 W/m² | - |
| 1777316274 | 34.44° C | 56% | 1009.2 hPa | 0 mm | - | 726 W/m² | - |
| 1777315971 | 34.44° C | 58% | 1009.2 hPa | 0 mm | - | 726 W/m² | - |
| 1777315670 | 33.33° C | 59% | 1009.3 hPa | 0 mm | - | 723 W/m² | - |
| 1777315368 | 33.89° C | 56% | 1009.3 hPa | 0 mm | - | 716 W/m² | - |
| 1777315066 | 32.78° C | 59% | 1009.5 hPa | 0 mm | - | 718 W/m² | - |
| 1777314766 | 32.78° C | 59% | 1009.3 hPa | 0 mm | - | 459 W/m² | - |
| 1777314463 | 32.22° C | 59% | 1009.4 hPa | 0 mm | - | 714 W/m² | - |
| 1777314159 | 32.78° C | 62% | 1009.3 hPa | 0 mm | - | 209 W/m² | - |
| 1777313858 | 31.67° C | 62% | 1009.3 hPa | 0 mm | - | 187 W/m² | - |
| 1777313554 | 32.22° C | 63% | 1009.4 hPa | 0 mm | - | 729 W/m² | - |
| 1777313252 | 32.78° C | 62% | 1009.6 hPa | 0 mm | - | 729 W/m² | - |
| 1777312948 | 32.22° C | 61% | 1009.6 hPa | 0 mm | - | 745 W/m² | - |
* Rain latest hour (hover to see other rain measurements)
** Current wind speed in m/s (hover to see current wind gust speed)